When you browse on this site, cookies collect data to enhance your experience and personalize the content and advertising you see.
Visit our Privacy Policy to learn more. By continuing to use the site, you agree to this use of cookies and data.
  • In Italy
  • List of Countries
  • For 7 days
  • Water Temperature
  • Satellite Maps
  • Weather Map
  • Weather Widgets
  • user-avatar
    Login

    Hourly Weather Emona

    Today, 20 March, Wednesday

    Time Temperature Precipitation Wind Pressure Humidity
    00:00 +13°C° 0 mm 2 mps 764 mmHg 84%
    01:00 +12°C° 0 mm 2 mps 764 mmHg 86%
    02:00 +12°C° 0 mm 2 mps 764 mmHg 87%
    03:00 +12°C° 0 mm 2 mps 764 mmHg 87%
    04:00 +12°C° 0 mm 2 mps 765 mmHg 86%
    05:00 +10°C° 0 mm 2 mps 765 mmHg 86%
    06:00 +12°C° 0 mm 2 mps 765 mmHg 85%
    07:00 +12°C° 0 mm 2 mps 766 mmHg 83%
    08:00 +11°C° 0 mm 3 mps 766 mmHg 81%
    09:00 +11°C° 0 mm 3 mps 767 mmHg 77%
    10:00 +11°C° 0 mm 4 mps 767 mmHg 74%
    11:00 +12°C° 0 mm 4 mps 767 mmHg 71%
    12:00 +12°C° 0 mm 4 mps 767 mmHg 67%
    13:00 +13°C° 0 mm 4 mps 768 mmHg 62%
    14:00 +12°C° 0 mm 5 mps 768 mmHg 63%
    15:00 +12°C° 0 mm 4 mps 768 mmHg 61%
    16:00 +12°C° 0 mm 4 mps 768 mmHg 59%
    17:00 +12°C° 0 mm 4 mps 769 mmHg 57%
    18:00 +11°C° 0 mm 3 mps 769 mmHg 61%
    19:00 +10°C° 0 mm 2 mps 769 mmHg 66%
    20:00 +9°C° 0 mm 2 mps 770 mmHg 71%
    21:00 +8°C° 0 mm 2 mps 770 mmHg 71%
    22:00 +8°C° 0 mm 2 mps 770 mmHg 72%
    23:00 +9°C° 0 mm 1 mps 770 mmHg 73%

    Tomorrow, 21 March, Thursday

    Time Temperature Precipitation Wind Pressure Humidity
    00:00 +8°C° 0 mm 2 mps 771 mmHg 75%
    01:00 +8°C° 0 mm 2 mps 771 mmHg 77%
    02:00 +8°C° 0 mm 3 mps 771 mmHg 80%
    03:00 +7°C° 0 mm 3 mps 771 mmHg 82%
    04:00 +6°C° 0 mm 4 mps 771 mmHg 85%
    05:00 +6°C° 0 mm 4 mps 771 mmHg 87%
    06:00 +7°C° 0 mm 4 mps 772 mmHg 84%
    07:00 +7°C° 0 mm 4 mps 772 mmHg 80%
    08:00 +8°C° 0 mm 5 mps 772 mmHg 76%
    09:00 +9°C° 0 mm 5 mps 772 mmHg 71%
    10:00 +10°C° 0 mm 5 mps 772 mmHg 66%
    11:00 +12°C° 0 mm 5 mps 773 mmHg 60%
    12:00 +13°C° 0 mm 5 mps 772 mmHg 57%
    13:00 +13°C° 0 mm 6 mps 772 mmHg 54%
    14:00 +13°C° 0 mm 6 mps 772 mmHg 50%
    15:00 +13°C° 0 mm 5 mps 772 mmHg 52%
    16:00 +12°C° 0 mm 5 mps 772 mmHg 55%
    17:00 +11°C° 0 mm 4 mps 772 mmHg 57%
    18:00 +10°C° 0 mm 4 mps 772 mmHg 62%
    19:00 +9°C° 0 mm 3 mps 772 mmHg 66%
    20:00 +8°C° 0 mm 2 mps 772 mmHg 71%
    21:00 +7°C° 0 mm 2 mps 772 mmHg 72%
    22:00 +8°C° 0 mm 1 mps 772 mmHg 73%
    23:00 +8°C° 0 mm 1 mps 773 mmHg 74%

    Day after tomorrow, 22 March, Friday

    Time Temperature Precipitation Wind Pressure Humidity
    00:00 +7°C° 0 mm 1 mps 773 mmHg 75%
    01:00 +7°C° 0 mm 1 mps 773 mmHg 76%
    02:00 +7°C° 0 mm 1 mps 773 mmHg 77%
    03:00 +7°C° 0 mm 1 mps 772 mmHg 77%
    04:00 +7°C° 0 mm 1 mps 772 mmHg 78%
    05:00 +5°C° 0 mm 2 mps 772 mmHg 78%
    06:00 +8°C° 0 mm 1 mps 772 mmHg 73%
    07:00 +9°C° 0 mm 1 mps 772 mmHg 69%
    08:00 +10°C° 0 mm 1 mps 772 mmHg 64%
    09:00 +12°C° 0 mm 2 mps 772 mmHg 58%
    10:00 +13°C° 0 mm 2 mps 772 mmHg 52%
    11:00 +14°C° 0 mm 3 mps 772 mmHg 46%
    12:00 +14°C° 0 mm 3 mps 771 mmHg 46%
    13:00 +16°C° 0 mm 3 mps 771 mmHg 45%
    14:00 +16°C° 0 mm 3 mps 770 mmHg 44%
    15:00 +16°C° 0 mm 3 mps 770 mmHg 47%
    16:00 +14°C° 0 mm 3 mps 770 mmHg 49%
    17:00 +14°C° 0 mm 3 mps 769 mmHg 51%
    18:00 +13°C° 0 mm 2 mps 769 mmHg 56%
    19:00 +12°C° 0 mm 2 mps 770 mmHg 60%
    20:00 +10°C° 0 mm 1 mps 770 mmHg 64%
    21:00 +10°C° 0 mm 1 mps 770 mmHg 65%
    22:00 +10°C° 0 mm 1 mps 770 mmHg 66%
    23:00 +9°C° 0 mm 1 mps 770 mmHg 66%

    23 March, Saturday

    Time Temperature Precipitation Wind Pressure Humidity
    00:00 +9°C° 0 mm 1 mps 770 mmHg 68%
    01:00 +9°C° 0 mm 1 mps 769 mmHg 69%
    02:00 +8°C° 0 mm 2 mps 769 mmHg 70%
    03:00 +8°C° 0 mm 2 mps 769 mmHg 69%
    04:00 +9°C° 0 mm 2 mps 769 mmHg 69%
    05:00 +9°C° 0 mm 2 mps 769 mmHg 68%
    06:00 +10°C° 0 mm 3 mps 769 mmHg 70%
    07:00 +10°C° 0 mm 3 mps 769 mmHg 72%
    08:00 +11°C° 0 mm 4 mps 769 mmHg 74%
    09:00 +12°C° 0 mm 4 mps 769 mmHg 71%
    10:00 +13°C° 0 mm 4 mps 769 mmHg 68%
    11:00 +14°C° 0 mm 4 mps 769 mmHg 64%
    12:00 +14°C° 0 mm 4 mps 769 mmHg 62%
    13:00 +14°C° 0 mm 4 mps 768 mmHg 60%
    14:00 +15°C° 0 mm 4 mps 768 mmHg 58%
    15:00 +14°C° 0 mm 3 mps 768 mmHg 59%
    16:00 +14°C° 0 mm 3 mps 768 mmHg 59%
    17:00 +15°C° 0 mm 2 mps 767 mmHg 59%
    18:00 +13°C° 0 mm 2 mps 768 mmHg 65%
    19:00 +12°C° 0 mm 1 mps 768 mmHg 71%
    20:00 +10°C° 0 mm 1 mps 768 mmHg 76%
    21:00 +10°C° 0 mm 1 mps 768 mmHg 77%
    22:00 +10°C° 0 mm 1 mps 768 mmHg 78%
    23:00 +10°C° 0 mm 1 mps 769 mmHg 79%

    24 March, Sunday

    Time Temperature Precipitation Wind Pressure Humidity
    00:00 +9°C° 0 mm 1 mps 768 mmHg 80%
    01:00 +9°C° 0 mm 1 mps 768 mmHg 81%
    02:00 +9°C° 0 mm 1 mps 768 mmHg 82%
    03:00 +9°C° 0 mm 1 mps 768 mmHg 83%
    04:00 +9°C° 0 mm 1 mps 768 mmHg 84%
    05:00 +8°C° 0 mm 1 mps 768 mmHg 85%
    06:00 +9°C° 0 mm 1 mps 768 mmHg 79%
    07:00 +11°C° 0 mm 1 mps 768 mmHg 73%
    08:00 +12°C° 0 mm 1 mps 769 mmHg 67%
    09:00 +13°C° 0 mm 1 mps 769 mmHg 57%
    10:00 +15°C° 0 mm 2 mps 769 mmHg 48%
    11:00 +16°C° 0 mm 2 mps 769 mmHg 38%
    12:00 +17°C° 0 mm 2 mps 768 mmHg 37%
    13:00 +17°C° 0 mm 3 mps 768 mmHg 36%
    14:00 +17°C° 0 mm 3 mps 767 mmHg 36%
    15:00 +17°C° 0 mm 3 mps 767 mmHg 38%
    16:00 +16°C° 0 mm 3 mps 767 mmHg 40%
    17:00 +14°C° 0 mm 4 mps 766 mmHg 43%
    18:00 +13°C° 0 mm 3 mps 767 mmHg 48%
    19:00 +12°C° 0 mm 2 mps 767 mmHg 52%
    20:00 +9°C° 0 mm 2 mps 767 mmHg 57%
    21:00 +10°C° 0 mm 1 mps 767 mmHg 58%
    22:00 +10°C° 0 mm 1 mps 767 mmHg 59%
    23:00 +9°C° 0 mm 1 mps 767 mmHg 60%

    25 March, Monday

    Time Temperature Precipitation Wind Pressure Humidity
    00:00 +9°C° 0 mm 1 mps 766 mmHg 59%
    01:00 +9°C° 0 mm 1 mps 766 mmHg 58%
    02:00 +9°C° 0 mm 1 mps 766 mmHg 58%
    03:00 +9°C° 0 mm 1 mps 765 mmHg 57%
    04:00 +9°C° 0 mm 1 mps 765 mmHg 57%
    05:00 +8°C° 0 mm 1 mps 765 mmHg 56%
    06:00 +9°C° 0 mm 1 mps 764 mmHg 54%
    07:00 +11°C° 0 mm 1 mps 764 mmHg 52%
    08:00 +12°C° 0 mm 1 mps 764 mmHg 51%
    09:00 +14°C° 0 mm 1 mps 764 mmHg 47%
    10:00 +16°C° 0 mm 1 mps 763 mmHg 43%
    11:00 +18°C° 0 mm 2 mps 763 mmHg 39%
    12:00 +19°C° 0 mm 2 mps 762 mmHg 38%
    13:00 +19°C° 0 mm 2 mps 762 mmHg 38%
    14:00 +20°C° 0 mm 3 mps 761 mmHg 37%
    15:00 +20°C° 0 mm 3 mps 760 mmHg 40%
    16:00 +19°C° 0 mm 3 mps 760 mmHg 43%
    17:00 +19°C° 0 mm 3 mps 759 mmHg 46%
    18:00 +17°C° 0 mm 3 mps 759 mmHg 51%
    19:00 +15°C° 0 mm 2 mps 759 mmHg 57%
    20:00 +13°C° 0 mm 2 mps 759 mmHg 62%
    21:00 +13°C° 0 mm 2 mps 759 mmHg 62%
    22:00 +13°C° 0 mm 2 mps 759 mmHg 62%
    23:00 +12°C° 0 mm 2 mps 759 mmHg 61%
    Show more